• In Hungary
  • List of Countries
  • For 7 days
  • Water Temperature
  • Satellite Maps
  • Weather Map
  • News
  • Weather Widgets
  • user-avatar
    Login

    Hourly Weather Thimphu

    Today, 22 August, Wednesday

    Time Temperature Precipitation Wind Pressure Humidity
    00:00 +12°C° 0 mm 0 mps 525 mmHg 93%
    01:00 +12°C° 0.2 mm 0 mps 525 mmHg 93%
    02:00 +12°C° 0.2 mm 0 mps 525 mmHg 93%
    03:00 +12°C° 0.2 mm 0 mps 524 mmHg 93%
    04:00 +12°C° 0.2 mm 0 mps 524 mmHg 93%
    05:00 +12°C° 0.2 mm 0 mps 524 mmHg 92%
    06:00 +12°C° 0.2 mm 0 mps 524 mmHg 91%
    07:00 +13°C° 0.1 mm 0 mps 525 mmHg 87%
    08:00 +15°C° 0.1 mm 1 mps 526 mmHg 83%
    09:00 +16°C° 0.1 mm 1 mps 527 mmHg 79%
    10:00 +17°C° 0.2 mm 2 mps 527 mmHg 76%
    11:00 +18°C° 0.2 mm 2 mps 527 mmHg 72%
    12:00 +19°C° 0.2 mm 2 mps 528 mmHg 68%
    13:00 +19°C° 0.3 mm 2 mps 527 mmHg 71%
    14:00 +18°C° 0.3 mm 2 mps 526 mmHg 73%
    15:00 +18°C° 0.3 mm 2 mps 525 mmHg 75%
    16:00 +17°C° 0.2 mm 2 mps 525 mmHg 80%
    17:00 +16°C° 0.2 mm 1 mps 524 mmHg 85%
    18:00 +15°C° 0.2 mm 1 mps 524 mmHg 91%
    19:00 +15°C° 0.1 mm 1 mps 524 mmHg 92%
    20:00 +14°C° 0.1 mm 1 mps 524 mmHg 93%
    21:00 +13°C° 0.1 mm 0 mps 524 mmHg 94%
    22:00 +13°C° 0.1 mm 0 mps 524 mmHg 94%
    23:00 +13°C° 0.1 mm 0 mps 524 mmHg 94%

    Tomorrow, 23 August, Thursday

    Time Temperature Precipitation Wind Pressure Humidity
    00:00 +12°C° 0.1 mm 0 mps 524 mmHg 94%
    01:00 +12°C° 0.1 mm 0 mps 524 mmHg 94%
    02:00 +12°C° 0.1 mm 0 mps 524 mmHg 94%
    03:00 +12°C° 0.1 mm 0 mps 524 mmHg 94%
    04:00 +12°C° 0.2 mm 0 mps 524 mmHg 94%
    05:00 +12°C° 0.2 mm 0 mps 524 mmHg 93%
    06:00 +12°C° 0.2 mm 0 mps 524 mmHg 93%
    07:00 +14°C° 0.1 mm 1 mps 525 mmHg 88%
    08:00 +15°C° 0.1 mm 1 mps 526 mmHg 82%
    09:00 +16°C° 0.1 mm 1 mps 527 mmHg 77%
    10:00 +17°C° 0.2 mm 2 mps 527 mmHg 73%
    11:00 +18°C° 0.2 mm 2 mps 528 mmHg 69%
    12:00 +19°C° 0.2 mm 2 mps 528 mmHg 66%
    13:00 +19°C° 0.5 mm 2 mps 527 mmHg 68%
    14:00 +19°C° 0.5 mm 2 mps 527 mmHg 71%
    15:00 +18°C° 0.5 mm 2 mps 526 mmHg 73%
    16:00 +17°C° 0.4 mm 2 mps 525 mmHg 79%
    17:00 +16°C° 0.4 mm 1 mps 525 mmHg 85%
    18:00 +15°C° 0.4 mm 1 mps 524 mmHg 91%
    19:00 +15°C° 0.3 mm 1 mps 524 mmHg 92%
    20:00 +14°C° 0.3 mm 1 mps 525 mmHg 94%
    21:00 +13°C° 0.3 mm 0 mps 525 mmHg 96%
    22:00 +13°C° 0.3 mm 0 mps 525 mmHg 95%
    23:00 +13°C° 0.3 mm 0 mps 525 mmHg 95%

    Day after tomorrow, 24 August, Friday

    Time Temperature Precipitation Wind Pressure Humidity
    00:00 +12°C° 0.3 mm 0 mps 525 mmHg 95%
    01:00 +12°C° 0.3 mm 0 mps 524 mmHg 95%
    02:00 +12°C° 0.3 mm 0 mps 524 mmHg 94%
    03:00 +12°C° 0.3 mm 0 mps 524 mmHg 94%
    04:00 +12°C° 0.4 mm 0 mps 524 mmHg 93%
    05:00 +12°C° 0.4 mm 0 mps 524 mmHg 93%
    06:00 +12°C° 0.4 mm 0 mps 524 mmHg 93%
    07:00 +14°C° 0.3 mm 1 mps 525 mmHg 88%
    08:00 +15°C° 0.3 mm 1 mps 526 mmHg 84%
    09:00 +16°C° 0.3 mm 1 mps 526 mmHg 79%
    10:00 +16°C° 0.3 mm 1 mps 527 mmHg 77%
    11:00 +17°C° 0.3 mm 2 mps 527 mmHg 74%
    12:00 +18°C° 0.3 mm 2 mps 527 mmHg 72%
    13:00 +17°C° 0.6 mm 2 mps 526 mmHg 74%
    14:00 +17°C° 0.6 mm 2 mps 526 mmHg 75%
    15:00 +17°C° 0.6 mm 2 mps 525 mmHg 77%
    16:00 +16°C° 0.6 mm 1 mps 525 mmHg 81%
    17:00 +15°C° 0.6 mm 1 mps 524 mmHg 85%
    18:00 +15°C° 0.6 mm 1 mps 524 mmHg 90%
    19:00 +14°C° 0.3 mm 1 mps 524 mmHg 91%
    20:00 +13°C° 0.3 mm 0 mps 524 mmHg 93%
    21:00 +12°C° 0.3 mm 0 mps 525 mmHg 94%
    22:00 +12°C° 0.4 mm 0 mps 525 mmHg 94%
    23:00 +12°C° 0.4 mm 0 mps 524 mmHg 94%

    25 August, Saturday

    Time Temperature Precipitation Wind Pressure Humidity
    00:00 +12°C° 0.4 mm 0 mps 524 mmHg 94%
    01:00 +12°C° 0.8 mm 0 mps 524 mmHg 94%
    02:00 +12°C° 0.8 mm 0 mps 524 mmHg 94%
    03:00 +12°C° 0.8 mm 0 mps 523 mmHg 94%
    04:00 +11°C° 0.9 mm 0 mps 523 mmHg 93%
    05:00 +11°C° 0.9 mm 0 mps 523 mmHg 92%
    06:00 +11°C° 0.9 mm 0 mps 524 mmHg 91%
    07:00 +12°C° 1 mm 0 mps 524 mmHg 88%
    08:00 +14°C° 1 mm 1 mps 525 mmHg 84%
    09:00 +15°C° 1 mm 1 mps 526 mmHg 80%
    10:00 +16°C° 0.7 mm 1 mps 526 mmHg 78%
    11:00 +16°C° 0.7 mm 1 mps 526 mmHg 76%
    12:00 +18°C° 0.7 mm 1 mps 526 mmHg 74%
    13:00 +18°C° 0.5 mm 1 mps 526 mmHg 73%
    14:00 +18°C° 0.5 mm 1 mps 525 mmHg 73%
    15:00 +19°C° 0.5 mm 1 mps 525 mmHg 73%
    16:00 +18°C° 0.1 mm 1 mps 525 mmHg 77%
    17:00 +16°C° 0.1 mm 1 mps 524 mmHg 81%
    18:00 +15°C° 0.1 mm 1 mps 524 mmHg 85%
    19:00 +15°C° 0.1 mm 1 mps 524 mmHg 88%
    20:00 +14°C° 0.1 mm 1 mps 524 mmHg 91%
    21:00 +12°C° 0.1 mm 0 mps 524 mmHg 93%
    22:00 +12°C° 0.1 mm 0 mps 524 mmHg 93%
    23:00 +12°C° 0.1 mm 0 mps 524 mmHg 93%

    26 August, Sunday

    Time Temperature Precipitation Wind Pressure Humidity
    00:00 +12°C° 0.1 mm 0 mps 524 mmHg 93%
    01:00 +12°C° 0.2 mm 0 mps 523 mmHg 92%
    02:00 +12°C° 0.2 mm 0 mps 523 mmHg 92%
    03:00 +12°C° 0.2 mm 0 mps 523 mmHg 92%
    04:00 +11°C° 0.1 mm 0 mps 523 mmHg 91%
    05:00 +12°C° 0.1 mm 1 mps 523 mmHg 90%
    06:00 +12°C° 0.1 mm 1 mps 523 mmHg 89%
    07:00 +14°C° 0 mm 1 mps 524 mmHg 81%
    08:00 +16°C° 0 mm 1 mps 526 mmHg 73%
    09:00 +19°C° 0 mm 1 mps 527 mmHg 65%
    10:00 +19°C° 0.1 mm 2 mps 527 mmHg 65%
    11:00 +19°C° 0.1 mm 2 mps 527 mmHg 64%
    12:00 +20°C° 0.1 mm 3 mps 527 mmHg 64%
    13:00 +19°C° 0.3 mm 2 mps 526 mmHg 67%
    14:00 +19°C° 0.3 mm 2 mps 525 mmHg 70%
    15:00 +18°C° 0.3 mm 2 mps 525 mmHg 74%
    16:00 +17°C° 0.2 mm 2 mps 524 mmHg 79%
    17:00 +17°C° 0.2 mm 2 mps 524 mmHg 84%
    18:00 +16°C° 0.2 mm 1 mps 523 mmHg 89%
    19:00 +15°C° 0.2 mm 1 mps 524 mmHg 91%
    20:00 +14°C° 0.2 mm 1 mps 524 mmHg 93%
    21:00 +14°C° 0.2 mm 1 mps 524 mmHg 96%
    22:00 +14°C° 0.3 mm 1 mps 524 mmHg 95%
    23:00 +13°C° 0.3 mm 1 mps 524 mmHg 94%

    27 August, Monday

    Time Temperature Precipitation Wind Pressure Humidity
    00:00 +13°C° 0.3 mm 1 mps 524 mmHg 93%
    01:00 +13°C° 0.2 mm 1 mps 524 mmHg 92%
    02:00 +13°C° 0.2 mm 1 mps 524 mmHg 91%
    03:00 +12°C° 0.2 mm 0 mps 523 mmHg 91%
    04:00 +12°C° 0.1 mm 0 mps 524 mmHg 90%
    05:00 +13°C° 0.1 mm 1 mps 524 mmHg 89%
    06:00 +12°C° 0.1 mm 1 mps 524 mmHg 89%
    07:00 +14°C° 0.1 mm 1 mps 525 mmHg 83%
    08:00 +15°C° 0.1 mm 1 mps 526 mmHg 77%
    09:00 +18°C° 0.1 mm 1 mps 527 mmHg 72%
    10:00 +18°C° 0.2 mm 2 mps 527 mmHg 69%
    11:00 +19°C° 0.2 mm 2 mps 527 mmHg 66%
    12:00 +20°C° 0.2 mm 2 mps 528 mmHg 63%
    13:00 +19°C° 0.2 mm 2 mps 527 mmHg 66%
    14:00 +19°C° 0.2 mm 2 mps 526 mmHg 68%
    15:00 +19°C° 0.2 mm 2 mps 526 mmHg 70%
    16:00 +17°C° 0.1 mm 2 mps 525 mmHg 76%
    17:00 +16°C° 0.1 mm 2 mps 525 mmHg 81%
    18:00 +15°C° 0.1 mm 1 mps 524 mmHg 87%
    19:00 +15°C° 0.2 mm 1 mps 524 mmHg 90%
    20:00 +14°C° 0.2 mm 1 mps 525 mmHg 93%
    21:00 +14°C° 0.2 mm 1 mps 525 mmHg 96%
    22:00 +13°C° 0.6 mm 1 mps 525 mmHg 95%
    23:00 +13°C° 0.6 mm 1 mps 525 mmHg 95%
    Show more